Sauk Centre, MN

1:30 AM CDT on April 28, 2017 (GMT -0500)
Sauk Centre

Weather History for KD39 - March, 2013

Change the Weather History Date:

Monday, March 4, 2013

  Actual Average (KGHW) Record (KGHW)
Temperature  
Mean Temperature 24 °F -  
Max Temperature 26 °F 33 °F 50 °F (1968)
Min Temperature 21 °F 14 °F -16 °F (1960)
Degree Days  
Heating Degree Days 42    
Moisture  
Dew Point 19 °F    
Average Humidity 88    
Maximum Humidity 93    
Minimum Humidity 59    
Precipitation  
Precipitation 0.00 in - - ()
Sea Level Pressure  
Sea Level Pressure 29.91 in    
Wind  
Wind Speed 14 mph (ESE)    
Max Wind Speed 18 mph    
Max Gust Speed 28 mph    
Visibility 5 miles    
Events Snow    
Averages and records for this station are not official NWS values.
T = Trace of Precipitation, MM = Missing Value Source: NWS Daily Summary

Daily Weather History Graph

Daily Weather History Graph

Search for Another Location

Airport or City:

Trip Planner

Search our weather history database for the weather conditions in past years. The results will help you decide how hot, cold, wet, or windy it might be!

Date:

Astronomy

Mar. 04, 2013 Rise Set
Actual Time 6:52 AM CST 6:11 PM CST
Civil Twilight 6:22 AM CST 6:40 PM CST
Nautical Twilight 5:48 AM CST 7:15 PM CST
Astronomical Twilight 5:13 AM CST 7:49 PM CST
Moon 1:15 AM CST (3/4) 10:40 AM CST (3/4)
Length of Visible Light 12h 18m
Length of Day
11h 18m
Waning Gibbous, 52% of the Moon is Illuminated
Mar 4
Waning Gibbous
Mar 4
Last Quarter
Mar 11
New
Mar 19
First Quarter
Mar 27
Full

Hourly Weather History & Observations

Time (CST) Temp. Windchill Dew Point Humidity Pressure Visibility Wind Dir Wind Speed Gust Speed Precip Events Conditions
12:15 AM 26.6 °F 13.8 °F 14.0 °F 59% 29.92 in 10.0 mi SE 17.3 mph 27.6 mph N/A   Overcast
12:55 AM 23.0 °F 9.6 °F 19.4 °F 86% 29.91 in 4.0 mi ESE 16.1 mph 21.9 mph N/A Snow Light Snow
1:15 AM 23.0 °F 10.6 °F 19.4 °F 86% 29.91 in 5.0 mi ESE 13.8 mph 19.6 mph N/A Snow Light Snow
1:35 AM 24.8 °F 12.9 °F 17.6 °F 74% 29.90 in 7.0 mi ESE 13.8 mph 23.0 mph N/A   Overcast
1:55 AM 23.0 °F 10.1 °F 17.6 °F 80% 29.90 in 5.0 mi ESE 15.0 mph 21.9 mph N/A Snow Light Snow
2:15 AM 23.0 °F 10.1 °F 19.4 °F 86% 29.89 in 4.0 mi ESE 15.0 mph 20.7 mph N/A Snow Light Snow
2:35 AM 23.0 °F 10.1 °F 19.4 °F 86% 29.89 in 3.0 mi ESE 15.0 mph - N/A Snow Light Snow
2:55 AM 23.0 °F 11.7 °F 19.4 °F 86% 29.88 in 2.0 mi ESE 11.5 mph - N/A Snow Light Snow
3:15 AM 23.0 °F 11.1 °F 19.4 °F 86% 29.88 in 1.8 mi ESE 12.7 mph 16.1 mph N/A Snow Light Snow
3:35 AM 23.0 °F 11.7 °F 19.4 °F 86% 29.87 in 1.8 mi East 11.5 mph - N/A Snow Light Snow
3:55 AM 23.0 °F 10.1 °F 19.4 °F 86% 29.86 in 2.0 mi East 15.0 mph 19.6 mph N/A Snow Light Snow
4:15 AM 23.0 °F 10.1 °F 19.4 °F 86% 29.87 in 1.8 mi East 15.0 mph 18.4 mph N/A Snow Light Snow
4:35 AM 21.2 °F 8.3 °F 19.4 °F 93% 29.87 in 1.5 mi East 13.8 mph 19.6 mph N/A Snow Light Snow
4:55 AM 21.2 °F 9.5 °F 19.4 °F 93% 29.87 in 1.5 mi East 11.5 mph - N/A Snow Light Snow
5:15 AM 21.2 °F 8.3 °F 19.4 °F 93% 29.87 in 1.5 mi ESE 13.8 mph 18.4 mph N/A Snow Light Snow
5:35 AM 21.2 °F 8.9 °F 19.4 °F 93% 29.87 in 1.5 mi East 12.7 mph - N/A Snow Light Snow
6:15 AM 21.2 °F 8.9 °F 19.4 °F 93% 29.87 in 2.0 mi East 12.7 mph - N/A Snow Light Snow
6:35 AM 21.2 °F 7.8 °F 19.4 °F 93% 29.87 in 3.0 mi East 15.0 mph 20.7 mph N/A Snow Light Snow
6:55 AM 21.2 °F 7.8 °F 19.4 °F 93% 29.87 in 2.5 mi East 15.0 mph 19.6 mph N/A Snow Light Snow
7:15 AM 21.2 °F 7.8 °F 19.4 °F 93% 29.87 in 1.5 mi East 15.0 mph - N/A Snow Light Snow
7:35 AM 21.2 °F 7.3 °F 19.4 °F 93% 29.87 in 2.0 mi East 16.1 mph 23.0 mph N/A Snow Light Snow
7:55 AM 21.2 °F 8.3 °F 19.4 °F 93% 29.88 in 1.2 mi East 13.8 mph 23.0 mph N/A Snow Light Snow
8:15 AM 21.2 °F 8.3 °F 19.4 °F 93% 29.88 in 1.5 mi East 13.8 mph 20.7 mph N/A Snow Light Snow
8:35 AM 23.0 °F 9.6 °F 19.4 °F 86% 29.88 in 2.5 mi East 16.1 mph 21.9 mph N/A Snow Light Snow
8:55 AM 23.0 °F 10.6 °F 19.4 °F 86% 29.88 in 3.0 mi East 13.8 mph 19.6 mph N/A Snow Light Snow
9:15 AM 23.0 °F 10.1 °F 19.4 °F 86% 29.88 in 5.0 mi East 15.0 mph 23.0 mph N/A   Overcast
9:35 AM 23.0 °F 10.1 °F 19.4 °F 86% 29.87 in 10.0 mi East 15.0 mph 20.7 mph N/A   Overcast
9:55 AM 23.0 °F 10.6 °F 19.4 °F 86% 29.88 in 10.0 mi ESE 13.8 mph - N/A   Overcast
10:15 AM 23.0 °F 10.6 °F 19.4 °F 86% 29.88 in 5.0 mi ESE 13.8 mph 19.6 mph N/A   Overcast
10:35 AM 23.0 °F 9.6 °F 19.4 °F 86% 29.88 in 2.5 mi ESE 16.1 mph - N/A Snow Light Snow
10:55 AM 23.0 °F 9.6 °F 19.4 °F 86% 29.88 in 2.5 mi ESE 16.1 mph 20.7 mph N/A Snow Light Snow
11:15 AM 23.0 °F 9.6 °F 19.4 °F 86% 29.88 in 7.0 mi ESE 16.1 mph - N/A Snow Light Snow
11:35 AM 23.0 °F 10.1 °F 19.4 °F 86% 29.89 in 10.0 mi ESE 15.0 mph - N/A   Overcast
11:55 AM 23.0 °F 8.7 °F 19.4 °F 86% 29.89 in 10.0 mi ESE 18.4 mph - N/A   Overcast
12:15 PM 23.0 °F 10.6 °F 19.4 °F 86% 29.90 in 10.0 mi ESE 13.8 mph 24.2 mph N/A   Overcast
12:55 PM 23.0 °F 9.2 °F 19.4 °F 86% 29.89 in 7.0 mi ESE 17.3 mph 24.2 mph N/A   Overcast
1:15 PM 23.0 °F 8.7 °F 19.4 °F 86% 29.89 in 7.0 mi ESE 18.4 mph 21.9 mph N/A   Overcast
1:35 PM 23.0 °F 10.1 °F 19.4 °F 86% 29.89 in 7.0 mi ESE 15.0 mph - N/A   Overcast
1:55 PM 23.0 °F 9.6 °F 19.4 °F 86% 29.89 in 7.0 mi ESE 16.1 mph - N/A   Overcast
2:15 PM 23.0 °F 10.6 °F 19.4 °F 86% 29.89 in 7.0 mi ESE 13.8 mph 18.4 mph N/A   Overcast
2:35 PM 23.0 °F 10.6 °F 19.4 °F 86% 29.89 in 7.0 mi ESE 13.8 mph 20.7 mph N/A   Overcast
2:55 PM 23.0 °F 12.4 °F 19.4 °F 86% 29.90 in 10.0 mi ESE 10.4 mph 13.8 mph N/A   Overcast
3:15 PM 23.0 °F 10.1 °F 19.4 °F 86% 29.90 in 7.0 mi ESE 15.0 mph - N/A   Overcast
3:35 PM 23.0 °F 11.7 °F 19.4 °F 86% 29.90 in 10.0 mi East 11.5 mph - N/A   Overcast
3:55 PM 23.0 °F 12.4 °F 19.4 °F 86% 29.91 in 7.0 mi East 10.4 mph 16.1 mph N/A Snow Light Snow
4:15 PM 23.0 °F 13.1 °F 19.4 °F 86% 29.91 in 1.5 mi East 9.2 mph - N/A Snow Light Snow
4:35 PM 23.0 °F 13.9 °F 19.4 °F 86% 29.91 in 1.0 mi East 8.1 mph - N/A Snow Light Snow
4:55 PM 21.2 °F 10.9 °F 19.4 °F 93% 29.91 in 0.8 mi East 9.2 mph - N/A Snow Light Snow
5:15 PM 21.2 °F 8.9 °F 19.4 °F 93% 29.91 in 5.0 mi East 12.7 mph 16.1 mph N/A Snow Light Snow
5:35 PM 21.2 °F 9.5 °F 19.4 °F 93% 29.92 in 4.0 mi East 11.5 mph - N/A Snow Light Snow
5:55 PM 21.2 °F 8.9 °F 19.4 °F 93% 29.92 in 1.8 mi East 12.7 mph - N/A Snow Light Snow
6:15 PM 21.2 °F 8.9 °F 19.4 °F 93% 29.92 in 3.0 mi East 12.7 mph 16.1 mph N/A Snow Light Snow
6:35 PM 21.2 °F 10.9 °F 19.4 °F 93% 29.94 in 4.0 mi ESE 9.2 mph - N/A Snow Light Snow
6:55 PM 21.2 °F 10.1 °F 19.4 °F 93% 29.95 in 5.0 mi ESE 10.4 mph - N/A Snow Light Snow
7:15 PM 21.2 °F 10.1 °F 19.4 °F 93% 29.96 in 4.0 mi ESE 10.4 mph - N/A Snow Light Snow
7:35 PM 21.2 °F 11.7 °F 19.4 °F 93% 29.97 in 3.0 mi ESE 8.1 mph - N/A Snow Light Snow
7:55 PM 21.2 °F 10.1 °F 19.4 °F 93% 29.97 in 5.0 mi ESE 10.4 mph - N/A Snow Light Snow
8:35 PM 21.2 °F 10.9 °F 19.4 °F 93% 29.97 in 4.0 mi ESE 9.2 mph - N/A Snow Light Snow
8:55 PM 21.2 °F 10.9 °F 19.4 °F 93% 29.95 in 4.0 mi East 9.2 mph - N/A Snow Light Snow
9:15 PM 21.2 °F 12.6 °F 19.4 °F 93% 29.96 in 3.0 mi East 6.9 mph - N/A Snow Light Snow
9:35 PM 21.2 °F 10.9 °F 19.4 °F 93% 29.96 in 4.0 mi East 9.2 mph - N/A Snow Light Snow
9:55 PM 21.2 °F 10.9 °F 19.4 °F 93% 29.97 in 7.0 mi ESE 9.2 mph - N/A   Overcast
10:15 PM 21.2 °F 10.1 °F 19.4 °F 93% 29.97 in 7.0 mi ESE 10.4 mph - N/A Snow Light Snow
10:35 PM 21.2 °F 11.7 °F 19.4 °F 93% 29.97 in 10.0 mi East 8.1 mph - N/A   Overcast
10:55 PM 21.2 °F 11.7 °F 19.4 °F 93% 29.96 in 10.0 mi East 8.1 mph - N/A   Overcast
11:15 PM 21.2 °F 10.9 °F 19.4 °F 93% 29.95 in 10.0 mi East 9.2 mph - N/A   Overcast
11:35 PM 23.0 °F 14.7 °F 19.4 °F 86% 29.96 in 10.0 mi East 6.9 mph - N/A   Overcast
11:55 PM 23.0 °F 13.9 °F 19.4 °F 86% 29.95 in 7.0 mi East 8.1 mph - N/A Snow Light Snow